Flag for Austria Weather past 2 weeks in Kapfenberg, Styria, Austria

Now
70 °F

Scattered clouds.


Feels Like: 70 °F
Forecast: 54 / 73 °F
Wind: 2 mph from North

Location: Zeltweg

Current Time: Jul 26, 2014 at 12:15:44 PM

Latest Report: Jul 26, 2014 at 11:50 AM


Visibility: 12 mi

Pressure: 29.98 "Hg

Humidity: 69%

Dew point: 59 °F

Location of KapfenbergLocation

Historic Weather in Kapfenberg — Graph

°F

Kapfenberg temperature yesterday

Maximum temperature yesterday: 72 °F (at 2:50 PM)
Minimum temperature yesterday: 59 °F (at 4:50 AM)
Average temperature yesterday: 65 °F

Past Weeks' High & Low Weather Summary

 TemperatureHumidityPressure
High86 °F (Jul 20, 12:50 PM)100% (Jul 14, 4:50 AM)30.24 "Hg (Jul 14, 4:50 AM)
Low46 °F (Jul 24, 5:50 AM)32% (Jul 18, 6:50 PM)29.80 "Hg (Jul 11, 10:50 AM)
Average67 °F70%30.01 "Hg
* Reported Jul 11 10:50 AM — Jul 26 10:50 AM, Kapfenberg, Weather by CustomWeather, © 2014

Note: Actual official high and low records may vary slightly from our data, if they occured in-between our weather recording intervals... More about our weather records

Advertising

Kapfenberg weather history for previous 24 hours

 ConditionsComfort  
Time TempWeatherWind HumidityBarometerVisibility
10:50 AM
Jul 26
66 °FScattered clouds.2 mph78%30.01 "Hg12 mi
9:50 AM61 °FScattered clouds.5 mph88%30.01 "Hg7 mi
8:50 AM59 °FMore clouds than sun.5 mph88%30.01 "Hg6 mi
7:50 AM57 °FMore clouds than sun.1 mph94%30.01 "Hg6 mi
6:50 AM55 °FBroken clouds.1 mph100%30.01 "Hg6 mi
10:50 PM
Jul 25
61 °FPassing clouds.3 mph83%30.01 "Hg12 mi
9:50 PM64 °FPassing clouds.1 mph83%30.01 "Hg12 mi
7:50 PM70 °FPartly sunny.2 mph60%29.98 "Hg16 mi
6:50 PM72 °FPartly sunny.2 mph57%29.98 "Hg16 mi
5:50 PM70 °FBroken clouds.5 mph60%29.98 "Hg16 mi
4:50 PM72 °FBroken clouds.7 mph57%29.98 "Hg16 mi
4:20 PM70 °FBroken clouds.8 mph64%29.98 "Hg16 mi
3:50 PM72 °FBroken clouds.5 mph61%29.98 "Hg16 mi
3:20 PM72 °FSprinkles. Broken clouds.3 mph53%29.98 "Hg16 mi
2:50 PM72 °FPartly sunny.2 mph57%30.01 "Hg12 mi
2:20 PM70 °FPartly sunny.3 mph69%30.01 "Hg12 mi
1:50 PM68 °FPartly sunny.1 mph69%30.01 "Hg12 mi
1:20 PM66 °FPartly sunny.2 mph73%30.01 "Hg12 mi
12:50 PM66 °FPartly sunny.1 mph73%30.01 "Hg12 mi
12:20 PM66 °FPartly sunny.3 mph73%30.01 "Hg12 mi
Weather by CustomWeather, © 2014

See weather overviewHow to use our weather pages